User: anonymous   Login
Location: Unspecified
(0.0000°N, 0.0000°E)
Time: 01:47:34
(UTC+00:00)
Language:

XW-2A - Orbit

View from above orbital plane
View from above orbital plane
View from above satellite
View from above satellite

Ground track
Ground track

The orbit data is extracted from the following two-line orbital elements,

1 40903U 15049E   21015.76150734  .00002853  00000-0  63931-4 0  9991
2 40903  97.2602  70.6239 0011863 204.5162 294.2346 15.44217874299227
Epoch (UTC): 15 January 2021 18:16:34
Eccentricity: 0.0011863
inclination: 97.2602°
perigee height: 425 km
apogee height: 442 km
right ascension of ascending node: 70.6239°
argument of perigee: 204.5162°
revolutions per day: 15.44217874
mean anomaly at epoch: 294.2346°
orbit number at epoch: 29922

The dashed part of the orbit path shows where the satellite is in the earth's shadow,  

DLR